Portada
METAR-TAF:

METAR-TAF

Aeroports :

Birdsville, Austràlia

latitud: 25-53-51S, longitud: 139-20-51E, altitud: 48 m

Observació

L'informe es va fer fa 52 minuts, a les 20:00 UTC
Vent 6 kt del Sud/Sud-Est
Temperatura 15°C
Humitat 27%
Pressió 1018 hPa

METAR: YBDV 132000Z AUTO 16006KT //// // ////// 15/M04 Q1018

Hora: 06:52 (20:52 UTC)


TAF: manca

Observacions i pronòstics meteorològics de més de 4000 aeroports (METAR i TAF).

Les estacions disponibles són els punts grocs i vermells al mapa.

Posi el ratolí al punt desitjat per veure el nom de l'estació.

Feu clic per veure les observacions i els pronòstics meteorològics.

Per canviar el mapa: feu clic els botons verds amb una creu de color negre per apropar; al botó verd amb un guió per allunyar la imatge; o en les fletxes verdes per a mapes adjacents.


METAR-TAF: